Weather in Znamenka

Russia / Chelyabinsk Oblast     56°06′50″N   60°53′13″E
temp.,
°C
wind,
m/s
gust,
m/s
humid.,
%
clouds,
%
prec.,
mm/h
press.,
hPa
HPBL,
m
24 january, mon
mon2423:00−19sw22100100 0.0 103911
02:00−18ssw22100100 0.0 103821
05:00−17ssw2299100 0.0 103816
08:00−14ssw2495100 0.0 103760
11:00−10sw2390100 0.0 103769
14:00−6wsw2484100 0.0 1035158
17:00−9w2291100 0.0 103517
20:00−10wsw2394100 0.0 103536
25 january, tue
tue2523:00−8wnw498667 0.0 1034294
02:00−16wsw229728 0.0 103418
05:00−13w3593100 0.0 103365
08:00−11w41088100 0.0 1031224
11:00−9w5148467 0.0 1030367
14:00−7w5138256 0.0 1028420
17:00−9w5108353 0.0 1028201
20:00−12w478640 0.0 102889
26 january, wed
wed2623:00−12w368769 0.0 102878
02:00−15w228763 0.0 102823
05:00−18sw229216 0.0 102915
08:00−18w22915 0.0 102913
11:00−14ssw2388100 0.0 102857
14:00−9s2485100 0.0 1026110
17:00−14sse229492 0.0 102715
20:00−18s2299100 0.0 102719
27 january, thu
thu2723:00−18s2398100 0.0 102534
02:00−17s2794100 0.0 1023105
05:00−17sw2497100 0.0 102339
08:00−12ssw2291100 0.0 102225
11:00−9sw3588100 0.0 1022104
14:00−4sw59806 0.0 1022698
17:00−9sw229095 0.0 102314
20:00−12ssw2296100 0.0 102412
28 january, fri
fri2823:00−13s1197100 0.0 10249
02:00−10se2395100 0.0 102377
05:00−8sse2496100 0.3 1021114
08:00−10sse2498100 0.1 102074
11:00−10s3893100 0.1 1020193
14:00−7sse4890100 0.0 1019278
17:00−9sse3693100 0.0 1019114
20:00−11sse3595100 0.0 101865